Regional Weather Roundup
Issued by NWS Northern Indiana

Home | Current Version | Previous Version | Text Only | Print | Product List | Glossary Off
Versions: 1 2 3 4 5 6 7 8 9 10 11 12 13 14 15 16 17 18 19 20 21 22 23 24 25 26 27 28 29 30 31 32 33 34 35 36 37 38 39 40 41 42 43 44 45 46 47 48 49 50

000
ASUS43 KIWX 291000
RWRIWX

KIWX WEATHER ROUNDUP
NATIONAL WEATHER SERVICE NORTHERN INDIANA
600 AM EDT SUN MAR 29 2015

NOTE: "FAIR" INDICATES FEW OR NO CLOUDS BELOW 12,000 FEET WITH NO
SIGNIFICANT WEATHER AND/OR OBSTRUCTIONS TO VISIBILITY.

* THESE STATIONS ARE NOT UNDER NWS QUALITY CONTROL. THEY ALSO MAY NOT
  REPORT WEATHER SUCH AS PRECIPITATION OR FOG.

INZ001>027-291100-
NORTHERN INDIANA

CITY           SKY/WX    TMP DP  RH WIND       PRES   REMARKS
GARY*          CLEAR     30  12  47 MISG      30.20F
SOUTH BEND     CLEAR     25  15  66 S8        30.22F WCI  16
GOSHEN         CLEAR     25  16  68 S9        30.24F WCI  15
ANGOLA*        CLEAR     19  12  73 S3        30.24S
FORT WAYNE     CLEAR     24  16  71 S9        30.27F WCI  14

$$
INZ028>050-291100-
CENTRAL INDIANA

CITY           SKY/WX    TMP DP  RH WIND       PRES   REMARKS
LAFAYETTE      CLEAR     27  16  63 S7        30.25F WCI  19
KOKOMO*          N/A     27  18  69 S12       30.26F WCI  16
MUNCIE*        CLEAR     25  14  63 S9        30.28F WCI  15
INDIANAPOLIS   CLEAR     24  15  68 SE9       30.27F WCI  14

$$
MIZ043>046-050>051-056>058-064>065-071>073-077>080-291100-
SOUTHWEST LOWER MICHIGAN

CITY           SKY/WX    TMP DP  RH WIND       PRES   REMARKS
BATTLE CREEK   CLEAR     23  14  68 S8        30.21F WCI  14
BENTON HARBOR  PTCLDY    24  15  68 S6        30.20F WCI  17
COLDWATER*     CLEAR     23  13  65 S5        30.23F WCI  17
HILLSDALE*     CLEAR     20  11  67 SW7       30.23R WCI  12
HOLLAND        PTCLDY    24  14  65 S9        30.19F WCI  14
GRAND RAPIDS   CLEAR     22  12  65 S9        30.19F WCI  12
KALAMAZOO      CLEAR     23  15  71 S9        30.22F WCI  13
STURGIS*       CLEAR     21  14  73 S8        30.22F WCI  12
THREE RIVERS*  FAIR      22  16  76 S6        30.23F WCI  14

$$
OHZ001>008-015>018-024>025-291100-
NORTHWEST OHIO

CITY           SKY/WX    TMP DP  RH WIND       PRES   REMARKS
DEFIANCE       CLEAR     24  16  71 S7        30.28F WCI  16
FINDLAY        CLEAR     21  15  78 S8        30.29S WCI  11
TOLEDO EXPRESS CLEAR     23  14  68 SW6       30.28F WCI  16
TOLEDO METCALF CLEAR     22  14  71 SW7       30.30S WCI  13
LIMA           CLEAR     24  14  65 S8        30.29S WCI  15

$$
AND FOR LAKE MICHIGAN COASTAL AND OPEN LAKE BUOY OBSERVATIONS

STATION/POSITION TEMP    WIND        PRES    VSBY  WAVE
                 AIR SEA DIR/SP/G                  HT/PER
                 (F)     (DEG/KT/KT) (MB)    (MI)  (FT/S)
MICHIGAN CITY     28     150/ 10/ 13   N/A
BURNS HARBOR      28     180/ 12/ 19 1023.0S
SAINT JOSEPH      26     140/  6/ 12 1023.7F

$$
&&


USA.gov is the U.S. government's official web portal to all federal, state and local government web resources and services.